Location: Vesunti
(61.5000°N, 22.8333°E)
Time: 14:34:35
(UTC+00:00)

Cosmos 1340 - Pass Details

Date: 17 February 2020
Orbit: 502 x 505 km, 81.2° (Epoch: 07 April)

Event Time Altitude Azimuth Distance (km) Brightness Sun altitude
Rises 04:05:02 0° 343° (NNW) 2,620 6.1 -15.2°
Reaches altitude 10° 04:07:13 10° 349° (N) 1,730 5.3 -14.9°
Maximum altitude 04:10:56 51° 66° (ENE) 646 3.6 -14.5°
Drops below altitude 10° 04:14:36 10° 143° (SE) 1,716 5.8 -14.0°
Sets 04:16:46 0° 149° (SSE) 2,596 6.7 -13.8°
